• In Latvia
  • List of Countries
  • For 7 days
  • Water Temperature
  • Satellite Maps
  • Weather Map
  • Weather Widgets
  • user-avatar
    Login

    Hourly Weather Wagadugu

    Today, 19 February, Monday

    Time Temperature Precipitation Wind Pressure Humidity
    00:00 +30°C° 0 mm 3 mps 730 mmHg 13%
    01:00 +30°C° 0 mm 3 mps 730 mmHg 13%
    02:00 +29°C° 0 mm 3 mps 730 mmHg 13%
    03:00 +28°C° 0 mm 3 mps 729 mmHg 13%
    04:00 +28°C° 0 mm 3 mps 730 mmHg 14%
    05:00 +28°C° 0 mm 3 mps 730 mmHg 14%
    06:00 +27°C° 0 mm 3 mps 730 mmHg 14%
    07:00 +29°C° 0 mm 3 mps 731 mmHg 13%
    08:00 +33°C° 0 mm 4 mps 731 mmHg 12%
    09:00 +35°C° 0 mm 5 mps 732 mmHg 11%
    10:00 +37°C° 0 mm 5 mps 731 mmHg 13%
    11:00 +40°C° 0 mm 4 mps 731 mmHg 15%
    12:00 +41°C° 0 mm 4 mps 731 mmHg 18%
    13:00 +42°C° 0 mm 3 mps 730 mmHg 16%
    14:00 +42°C° 0 mm 2 mps 729 mmHg 15%
    15:00 +42°C° 0 mm 1 mps 729 mmHg 14%
    16:00 +41°C° 0 mm 1 mps 728 mmHg 15%
    17:00 +40°C° 0 mm 1 mps 728 mmHg 17%
    18:00 +38°C° 0 mm 2 mps 728 mmHg 18%
    19:00 +38°C° 0 mm 2 mps 728 mmHg 19%
    20:00 +37°C° 0 mm 2 mps 729 mmHg 21%
    21:00 +36°C° 0 mm 2 mps 729 mmHg 22%
    22:00 +36°C° 0 mm 2 mps 729 mmHg 24%
    23:00 +34°C° 0 mm 1 mps 729 mmHg 25%

    Tomorrow, 20 February, Tuesday

    Time Temperature Precipitation Wind Pressure Humidity
    00:00 +34°C° 0 mm 1 mps 729 mmHg 27%
    01:00 +33°C° 0.2 mm 1 mps 729 mmHg 29%
    02:00 +34°C° 0.2 mm 2 mps 729 mmHg 32%
    03:00 +34°C° 0.2 mm 2 mps 729 mmHg 34%
    04:00 +32°C° 0.1 mm 2 mps 729 mmHg 37%
    05:00 +32°C° 0.1 mm 2 mps 729 mmHg 39%
    06:00 +31°C° 0.1 mm 2 mps 729 mmHg 41%
    07:00 +34°C° 0 mm 2 mps 730 mmHg 39%
    08:00 +35°C° 0 mm 3 mps 730 mmHg 36%
    09:00 +36°C° 0 mm 3 mps 731 mmHg 34%
    10:00 +38°C° 0 mm 3 mps 731 mmHg 31%
    11:00 +40°C° 0 mm 4 mps 730 mmHg 28%
    12:00 +41°C° 0 mm 4 mps 730 mmHg 25%
    13:00 +40°C° 0 mm 3 mps 729 mmHg 24%
    14:00 +42°C° 0 mm 3 mps 729 mmHg 23%
    15:00 +41°C° 0 mm 2 mps 728 mmHg 22%
    16:00 +40°C° 0 mm 2 mps 728 mmHg 23%
    17:00 +40°C° 0 mm 3 mps 728 mmHg 24%
    18:00 +39°C° 0 mm 3 mps 728 mmHg 25%
    19:00 +38°C° 0 mm 2 mps 728 mmHg 27%
    20:00 +37°C° 0 mm 2 mps 729 mmHg 29%
    21:00 +35°C° 0 mm 1 mps 729 mmHg 31%
    22:00 +34°C° 0 mm 1 mps 729 mmHg 32%
    23:00 +34°C° 0 mm 1 mps 729 mmHg 33%

    Day after tomorrow, 21 February, Wednesday

    Time Temperature Precipitation Wind Pressure Humidity
    00:00 +34°C° 0 mm 1 mps 729 mmHg 34%
    01:00 +34°C° 0 mm 2 mps 728 mmHg 35%
    02:00 +34°C° 0 mm 2 mps 728 mmHg 35%
    03:00 +34°C° 0 mm 2 mps 728 mmHg 36%
    04:00 +32°C° 0 mm 2 mps 728 mmHg 36%
    05:00 +33°C° 0 mm 3 mps 728 mmHg 37%
    06:00 +31°C° 0 mm 3 mps 728 mmHg 38%
    07:00 +34°C° 0 mm 3 mps 729 mmHg 33%
    08:00 +36°C° 0 mm 4 mps 729 mmHg 29%
    09:00 +39°C° 0 mm 5 mps 730 mmHg 24%
    10:00 +40°C° 0 mm 5 mps 729 mmHg 21%
    11:00 +42°C° 0 mm 5 mps 729 mmHg 18%
    12:00 +43°C° 0 mm 5 mps 728 mmHg 16%
    13:00 +43°C° 0 mm 5 mps 728 mmHg 16%
    14:00 +44°C° 0 mm 6 mps 727 mmHg 17%
    15:00 +44°C° 0 mm 6 mps 726 mmHg 18%
    16:00 +42°C° 0 mm 5 mps 726 mmHg 19%
    17:00 +41°C° 0 mm 5 mps 726 mmHg 21%
    18:00 +40°C° 0 mm 4 mps 726 mmHg 23%
    19:00 +38°C° 0 mm 4 mps 727 mmHg 25%
    20:00 +37°C° 0 mm 4 mps 727 mmHg 28%
    21:00 +36°C° 0 mm 3 mps 728 mmHg 30%
    22:00 +35°C° 0 mm 3 mps 728 mmHg 32%
    23:00 +34°C° 0 mm 3 mps 728 mmHg 35%

    22 February, Thursday

    Time Temperature Precipitation Wind Pressure Humidity
    00:00 +34°C° 0 mm 3 mps 728 mmHg 37%
    01:00 +33°C° 0 mm 3 mps 727 mmHg 39%
    02:00 +31°C° 0 mm 3 mps 727 mmHg 40%
    03:00 +31°C° 0 mm 2 mps 726 mmHg 42%
    04:00 +30°C° 0 mm 2 mps 727 mmHg 43%
    05:00 +29°C° 0 mm 2 mps 727 mmHg 44%
    06:00 +29°C° 0 mm 2 mps 727 mmHg 45%
    07:00 +31°C° 0 mm 3 mps 728 mmHg 41%
    08:00 +33°C° 0 mm 4 mps 729 mmHg 37%
    09:00 +35°C° 0 mm 5 mps 729 mmHg 33%
    10:00 +37°C° 0 mm 4 mps 729 mmHg 28%
    11:00 +38°C° 0 mm 4 mps 729 mmHg 23%
    12:00 +41°C° 0 mm 4 mps 728 mmHg 18%
    13:00 +41°C° 0 mm 4 mps 727 mmHg 17%
    14:00 +42°C° 0 mm 4 mps 726 mmHg 16%
    15:00 +42°C° 0 mm 4 mps 726 mmHg 15%
    16:00 +40°C° 0 mm 3 mps 726 mmHg 16%
    17:00 +39°C° 0 mm 3 mps 726 mmHg 17%
    18:00 +38°C° 0 mm 2 mps 726 mmHg 18%
    19:00 +37°C° 0 mm 2 mps 727 mmHg 20%
    20:00 +36°C° 0 mm 2 mps 727 mmHg 23%
    21:00 +35°C° 0 mm 2 mps 728 mmHg 25%
    22:00 +34°C° 0 mm 2 mps 727 mmHg 26%
    23:00 +32°C° 0 mm 2 mps 727 mmHg 26%

    23 February, Friday

    Time Temperature Precipitation Wind Pressure Humidity
    00:00 +32°C° 0 mm 2 mps 727 mmHg 26%
    01:00 +31°C° 0 mm 2 mps 727 mmHg 25%
    02:00 +31°C° 0 mm 1 mps 727 mmHg 24%
    03:00 +30°C° 0 mm 1 mps 726 mmHg 23%
    04:00 +29°C° 0 mm 2 mps 727 mmHg 26%
    05:00 +29°C° 0 mm 2 mps 727 mmHg 29%
    06:00 +28°C° 0 mm 2 mps 728 mmHg 32%
    07:00 +30°C° 0 mm 4 mps 728 mmHg 37%
    08:00 +32°C° 0 mm 5 mps 729 mmHg 41%
    09:00 +34°C° 0 mm 7 mps 730 mmHg 46%
    10:00 +36°C° 0 mm 6 mps 729 mmHg 39%
    11:00 +39°C° 0 mm 6 mps 729 mmHg 33%
    12:00 +41°C° 0 mm 5 mps 729 mmHg 26%
    13:00 +41°C° 0 mm 5 mps 728 mmHg 24%
    14:00 +42°C° 0 mm 4 mps 727 mmHg 23%
    15:00 +42°C° 0 mm 4 mps 727 mmHg 21%
    16:00 +40°C° 0.1 mm 3 mps 727 mmHg 23%
    17:00 +39°C° 0.1 mm 3 mps 727 mmHg 26%
    18:00 +38°C° 0.1 mm 2 mps 727 mmHg 28%
    19:00 +37°C° 0.4 mm 3 mps 728 mmHg 31%
    20:00 +36°C° 0.4 mm 3 mps 729 mmHg 34%
    21:00 +35°C° 0.4 mm 3 mps 729 mmHg 37%
    22:00 +35°C° 0.3 mm 3 mps 729 mmHg 38%
    23:00 +34°C° 0.3 mm 3 mps 729 mmHg 40%

    24 February, Saturday

    Time Temperature Precipitation Wind Pressure Humidity
    00:00 +34°C° 0.3 mm 3 mps 730 mmHg 41%
    01:00 +34°C° 0 mm 3 mps 729 mmHg 42%
    02:00 +34°C° 0 mm 3 mps 729 mmHg 43%
    03:00 +33°C° 0 mm 3 mps 729 mmHg 44%
    04:00 +33°C° 0.1 mm 3 mps 729 mmHg 46%
    05:00 +33°C° 0.1 mm 3 mps 729 mmHg 48%
    06:00 +31°C° 0.1 mm 2 mps 730 mmHg 49%
    07:00 +33°C° 0 mm 3 mps 730 mmHg 47%
    08:00 +34°C° 0 mm 4 mps 731 mmHg 45%
    09:00 +35°C° 0 mm 5 mps 731 mmHg 43%
    10:00 +37°C° 0 mm 4 mps 731 mmHg 38%
    11:00 +38°C° 0 mm 3 mps 730 mmHg 34%
    12:00 +39°C° 0 mm 3 mps 730 mmHg 29%
    13:00 +40°C° 0 mm 3 mps 729 mmHg 27%
    14:00 +40°C° 0 mm 3 mps 729 mmHg 26%
    15:00 +41°C° 0 mm 2 mps 728 mmHg 24%
    16:00 +40°C° 0.3 mm 2 mps 728 mmHg 26%
    17:00 +39°C° 0.3 mm 2 mps 729 mmHg 28%
    18:00 +38°C° 0.3 mm 2 mps 729 mmHg 31%
    19:00 +37°C° 0.6 mm 2 mps 730 mmHg 33%
    20:00 +36°C° 0.6 mm 2 mps 730 mmHg 35%
    21:00 +36°C° 0.6 mm 2 mps 731 mmHg 37%
    22:00 +35°C° 0.4 mm 2 mps 731 mmHg 38%
    23:00 +35°C° 0.4 mm 2 mps 731 mmHg 39%
    Show more